Data supplied by UK-AIR on 3/5/2024
All Data GMT hour ending 
Status: R =Ratified P=Provisional,P*=As supplied
,,Burton-on-Trent Horninglow,,,,,,,,,,,,,,,,,,,,,,,
Date,time,"PM<sub>10</sub> particulate matter (Hourly measured)",status,unit,"Nitric oxide",status,unit,"Nitrogen dioxide",status,unit,"Nitrogen oxides as nitrogen dioxide",status,unit,"Ozone",status,unit,"PM<sub>2.5</sub> particulate matter (Hourly measured)",status,unit
 
01-01-2024,01:00,6.850,P,ugm-3 (FIDAS),0.34345,P,ugm-3,2.49663,P,ugm-3,3.02325,P,ugm-3,69.11774,P,ugm-3,4.552,P,ugm-3 (Ref.eq)
01-01-2024,02:00,4.900,P,ugm-3 (FIDAS),0.34345,P,ugm-3,2.23374,P,ugm-3,2.76036,P,ugm-3,70.44821,P,ugm-3,2.854,P,ugm-3 (Ref.eq)
01-01-2024,03:00,3.850,P,ugm-3 (FIDAS),0.22539,P,ugm-3,1.37963,P,ugm-3,1.72522,P,ugm-3,70.89724,P,ugm-3,2.264,P,ugm-3 (Ref.eq)
01-01-2024,04:00,3.800,P,ugm-3 (FIDAS),0.16099,P,ugm-3,1.28120,P,ugm-3,1.52806,P,ugm-3,69.99918,P,ugm-3,1.981,P,ugm-3 (Ref.eq)
01-01-2024,05:00,4.325,P,ugm-3 (FIDAS),0.12879,P,ugm-3,1.33057,P,ugm-3,1.52806,P,ugm-3,66.90584,P,ugm-3,2.217,P,ugm-3 (Ref.eq)
01-01-2024,06:00,3.050,P,ugm-3 (FIDAS),0.12879,P,ugm-3,0.98553,P,ugm-3,1.18301,P,ugm-3,67.05552,P,ugm-3,1.651,P,ugm-3 (Ref.eq)
01-01-2024,07:00,2.675,P,ugm-3 (FIDAS),0.25759,P,ugm-3,1.33026,P,ugm-3,1.72522,P,ugm-3,68.15316,P,ugm-3,1.580,P,ugm-3 (Ref.eq)
01-01-2024,08:00,3.825,P,ugm-3 (FIDAS),0.16099,P,ugm-3,2.02059,P,ugm-3,2.26744,P,ugm-3,67.25509,P,ugm-3,2.123,P,ugm-3 (Ref.eq)
01-01-2024,09:00,4.425,P,ugm-3 (FIDAS),0.19319,P,ugm-3,2.75989,P,ugm-3,3.05611,P,ugm-3,65.15961,P,ugm-3,2.429,P,ugm-3 (Ref.eq)
01-01-2024,10:00,9.975,P,ugm-3 (FIDAS),0.64397,P,ugm-3,8.27951,P,ugm-3,9.26691,P,ugm-3,57.57595,P,ugm-3,4.717,P,ugm-3 (Ref.eq)
01-01-2024,11:00,12.900,P,ugm-3 (FIDAS),1.12694,P,ugm-3,8.52480,P,ugm-3,10.25275,P,ugm-3,60.32003,P,ugm-3,5.967,P,ugm-3 (Ref.eq)
01-01-2024,12:00,11.025,P,ugm-3 (FIDAS),1.12694,P,ugm-3,5.86302,P,ugm-3,7.59098,P,ugm-3,66.35703,P,ugm-3,5.448,P,ugm-3 (Ref.eq)
01-01-2024,13:00,12.750,P,ugm-3 (FIDAS),1.25574,P,ugm-3,8.03156,P,ugm-3,9.95700,P,ugm-3,63.41337,P,ugm-3,6.203,P,ugm-3 (Ref.eq)
01-01-2024,14:00,14.875,P,ugm-3 (FIDAS),2.18949,P,ugm-3,16.55682,P,ugm-3,19.91400,P,ugm-3,51.98799,P,ugm-3,6.887,P,ugm-3 (Ref.eq)
01-01-2024,15:00,14.025,P,ugm-3 (FIDAS),1.64212,P,ugm-3,18.18479,P,ugm-3,20.70267,P,ugm-3,49.54325,P,ugm-3,6.816,P,ugm-3 (Ref.eq)
01-01-2024,16:00,15.150,P,ugm-3 (FIDAS),1.64212,P,ugm-3,16.31169,P,ugm-3,18.82957,P,ugm-3,48.49551,P,ugm-3,8.726,P,ugm-3 (Ref.eq)
01-01-2024,17:00,13.875,P,ugm-3 (FIDAS),1.22354,P,ugm-3,15.81979,P,ugm-3,17.69585,P,ugm-3,47.24820,P,ugm-3,8.750,P,ugm-3 (Ref.eq)
01-01-2024,18:00,7.550,P,ugm-3 (FIDAS),1.06255,P,ugm-3,12.46832,P,ugm-3,14.09753,P,ugm-3,52.58670,P,ugm-3,5.142,P,ugm-3 (Ref.eq)
01-01-2024,19:00,4.000,P,ugm-3 (FIDAS),0.83716,P,ugm-3,8.32833,P,ugm-3,9.61195,P,ugm-3,63.51315,P,ugm-3,3.019,P,ugm-3 (Ref.eq)
01-01-2024,20:00,2.425,P,ugm-3 (FIDAS),0.90156,P,ugm-3,6.65224,P,ugm-3,8.03461,P,ugm-3,64.21165,P,ugm-3,1.958,P,ugm-3 (Ref.eq)
01-01-2024,21:00,2.050,P,ugm-3 (FIDAS),0.64397,P,ugm-3,7.88517,P,ugm-3,8.87257,P,ugm-3,62.16606,P,ugm-3,1.557,P,ugm-3 (Ref.eq)
01-01-2024,22:00,2.100,P,ugm-3 (FIDAS),0.38638,P,ugm-3,5.86482,P,ugm-3,6.45726,P,ugm-3,66.30713,P,ugm-3,1.226,P,ugm-3 (Ref.eq)
01-01-2024,23:00,1.650,P,ugm-3 (FIDAS),0.57957,P,ugm-3,5.42072,P,ugm-3,6.30939,P,ugm-3,67.65423,P,ugm-3,1.038,P,ugm-3 (Ref.eq)
01-01-2024,24:00,1.425,P,ugm-3 (FIDAS),0.28979,P,ugm-3,5.42143,P,ugm-3,5.86576,P,ugm-3,67.55445,P,ugm-3,0.778,P,ugm-3 (Ref.eq)
02-01-2024,01:00,2.300,P,ugm-3 (FIDAS),0.25771,P,ugm-3,7.62639,P,ugm-3,8.02154,P,ugm-3,66.39029,P,ugm-3,1.109,P,ugm-3 (Ref.eq)
02-01-2024,02:00,6.025,P,ugm-3 (FIDAS),0.21476,P,ugm-3,1.57747,P,ugm-3,1.90676,P,ugm-3,78.69710,P,ugm-3,3.278,P,ugm-3 (Ref.eq)
02-01-2024,03:00,6.775,P,ugm-3 (FIDAS),0.19328,P,ugm-3,3.64866,P,ugm-3,3.94502,P,ugm-3,73.29208,P,ugm-3,3.750,P,ugm-3 (Ref.eq)
02-01-2024,04:00,6.500,P,ugm-3 (FIDAS),0.22550,P,ugm-3,4.88140,P,ugm-3,5.22715,P,ugm-3,71.29638,P,ugm-3,3.703,P,ugm-3 (Ref.eq)
02-01-2024,05:00,6.800,P,ugm-3 (FIDAS),0.41878,P,ugm-3,5.07816,P,ugm-3,5.72028,P,ugm-3,66.20735,P,ugm-3,3.915,P,ugm-3 (Ref.eq)
02-01-2024,06:00,8.025,P,ugm-3 (FIDAS),0.32214,P,ugm-3,10.99594,P,ugm-3,11.48987,P,ugm-3,61.76692,P,ugm-3,4.575,P,ugm-3 (Ref.eq)
02-01-2024,07:00,11.150,P,ugm-3 (FIDAS),0.41878,P,ugm-3,17.30773,P,ugm-3,17.94985,P,ugm-3,56.92734,P,ugm-3,6.014,P,ugm-3 (Ref.eq)
02-01-2024,08:00,11.175,P,ugm-3 (FIDAS),0.64427,P,ugm-3,17.30716,P,ugm-3,18.29503,P,ugm-3,56.92734,P,ugm-3,6.533,P,ugm-3 (Ref.eq)
02-01-2024,09:00,15.300,P,ugm-3 (FIDAS),0.32214,P,ugm-3,17.11072,P,ugm-3,17.60466,P,ugm-3,57.12691,P,ugm-3,8.915,P,ugm-3 (Ref.eq)
02-01-2024,10:00,12.275,P,ugm-3 (FIDAS),0.90198,P,ugm-3,21.30085,P,ugm-3,22.68387,P,ugm-3,53.63444,P,ugm-3,7.783,P,ugm-3 (Ref.eq)
02-01-2024,11:00,7.300,P,ugm-3 (FIDAS),2.06167,P,ugm-3,25.39090,P,ugm-3,28.55209,P,ugm-3,55.08132,P,ugm-3,3.585,P,ugm-3 (Ref.eq)
02-01-2024,12:00,4.100,P,ugm-3 (FIDAS),2.89923,P,ugm-3,20.95065,P,ugm-3,25.39607,P,ugm-3,63.71272,P,ugm-3,2.359,P,ugm-3 (Ref.eq)
02-01-2024,13:00,4.125,P,ugm-3 (FIDAS),3.28579,P,ugm-3,28.69179,P,ugm-3,33.72993,P,ugm-3,55.23100,P,ugm-3,2.830,P,ugm-3 (Ref.eq)
02-01-2024,14:00,3.050,P,ugm-3 (FIDAS),1.51404,P,ugm-3,18.34055,P,ugm-3,20.66205,P,ugm-3,58.27444,P,ugm-3,2.170,P,ugm-3 (Ref.eq)
02-01-2024,15:00,2.575,P,ugm-3 (FIDAS),1.28855,P,ugm-3,14.93854,P,ugm-3,16.91428,P,ugm-3,63.66283,P,ugm-3,1.486,P,ugm-3 (Ref.eq)
02-01-2024,16:00,2.250,P,ugm-3 (FIDAS),0.99862,P,ugm-3,15.48170,P,ugm-3,17.01290,P,ugm-3,66.45681,P,ugm-3,1.439,P,ugm-3 (Ref.eq)
02-01-2024,17:00,2.825,P,ugm-3 (FIDAS),0.93420,P,ugm-3,9.51502,P,ugm-3,10.94743,P,ugm-3,79.77811,P,ugm-3,1.415,P,ugm-3 (Ref.eq)
02-01-2024,18:00,3.775,P,ugm-3 (FIDAS),1.03084,P,ugm-3,14.84056,P,ugm-3,16.42115,P,ugm-3,69.64993,P,ugm-3,2.830,P,ugm-3 (Ref.eq)
02-01-2024,19:00,3.325,P,ugm-3 (FIDAS),1.19191,P,ugm-3,13.45940,P,ugm-3,15.28696,P,ugm-3,68.60219,P,ugm-3,2.288,P,ugm-3 (Ref.eq)
02-01-2024,20:00,2.875,P,ugm-3 (FIDAS),0.67649,P,ugm-3,12.47443,P,ugm-3,13.51170,P,ugm-3,68.20305,P,ugm-3,1.863,P,ugm-3 (Ref.eq)
02-01-2024,21:00,3.250,P,ugm-3 (FIDAS),0.51542,P,ugm-3,14.94048,P,ugm-3,15.73077,P,ugm-3,63.41337,P,ugm-3,2.052,P,ugm-3 (Ref.eq)
02-01-2024,22:00,5.325,P,ugm-3 (FIDAS),0.45099,P,ugm-3,14.94064,P,ugm-3,15.63215,P,ugm-3,60.41982,P,ugm-3,3.325,P,ugm-3 (Ref.eq)
02-01-2024,23:00,6.475,P,ugm-3 (FIDAS),0.35435,P,ugm-3,12.32730,P,ugm-3,12.87063,P,ugm-3,62.26584,P,ugm-3,3.443,P,ugm-3 (Ref.eq)
02-01-2024,24:00,7.050,P,ugm-3 (FIDAS),0.22550,P,ugm-3,5.52246,P,ugm-3,5.86822,P,ugm-3,69.89939,P,ugm-3,3.656,P,ugm-3 (Ref.eq)
03-01-2024,01:00,8.825,P,ugm-3 (FIDAS),0.21486,P,ugm-3,10.65547,P,ugm-3,10.98492,P,ugm-3,60.93537,P,ugm-3,4.906,P,ugm-3 (Ref.eq)
03-01-2024,02:00,8.400,P,ugm-3 (FIDAS),0.30080,P,ugm-3,12.10236,P,ugm-3,12.56359,P,ugm-3,52.48691,P,ugm-3,4.292,P,ugm-3 (Ref.eq)
03-01-2024,03:00,8.675,P,ugm-3 (FIDAS),0.61235,P,ugm-3,29.69716,P,ugm-3,30.63608,P,ugm-3,33.22841,P,ugm-3,5.283,P,ugm-3 (Ref.eq)
03-01-2024,04:00,9.650,P,ugm-3 (FIDAS),0.54789,P,ugm-3,29.49999,P,ugm-3,30.34008,P,ugm-3,30.68389,P,ugm-3,5.118,P,ugm-3 (Ref.eq)
03-01-2024,05:00,7.325,P,ugm-3 (FIDAS),0.48343,P,ugm-3,15.58812,P,ugm-3,16.32937,P,ugm-3,49.79272,P,ugm-3,3.868,P,ugm-3 (Ref.eq)
03-01-2024,06:00,6.175,P,ugm-3 (FIDAS),0.54789,P,ugm-3,12.82528,P,ugm-3,13.66537,P,ugm-3,51.93809,P,ugm-3,3.349,P,ugm-3 (Ref.eq)
03-01-2024,07:00,6.400,P,ugm-3 (FIDAS),0.41898,P,ugm-3,19.73230,P,ugm-3,20.37472,P,ugm-3,46.15056,P,ugm-3,3.467,P,ugm-3 (Ref.eq)
03-01-2024,08:00,5.075,P,ugm-3 (FIDAS),0.74127,P,ugm-3,23.92481,P,ugm-3,25.06140,P,ugm-3,43.30669,P,ugm-3,3.160,P,ugm-3 (Ref.eq)
03-01-2024,09:00,5.350,P,ugm-3 (FIDAS),1.67590,P,ugm-3,28.01706,P,ugm-3,30.58674,P,ugm-3,41.41078,P,ugm-3,3.066,P,ugm-3 (Ref.eq)
03-01-2024,10:00,6.475,P,ugm-3 (FIDAS),2.09488,P,ugm-3,30.82798,P,ugm-3,34.04009,P,ugm-3,39.51486,P,ugm-3,3.703,P,ugm-3 (Ref.eq)
03-01-2024,11:00,7.625,P,ugm-3 (FIDAS),4.28645,P,ugm-3,28.45430,P,ugm-3,35.02676,P,ugm-3,44.20476,P,ugm-3,4.198,P,ugm-3 (Ref.eq)
03-01-2024,12:00,8.750,P,ugm-3 (FIDAS),4.51205,P,ugm-3,23.86570,P,ugm-3,30.78408,P,ugm-3,49.34368,P,ugm-3,4.859,P,ugm-3 (Ref.eq)
03-01-2024,13:00,2.875,P,ugm-3 (FIDAS),1.86928,P,ugm-3,12.77252,P,ugm-3,15.63871,P,ugm-3,62.26584,P,ugm-3,1.439,P,ugm-3 (Ref.eq)
03-01-2024,14:00,2.650,P,ugm-3 (FIDAS),1.74036,P,ugm-3,11.44085,P,ugm-3,14.10937,P,ugm-3,62.81466,P,ugm-3,1.203,P,ugm-3 (Ref.eq)
03-01-2024,15:00,2.725,P,ugm-3 (FIDAS),2.22380,P,ugm-3,14.39961,P,ugm-3,17.80938,P,ugm-3,57.07702,P,ugm-3,1.109,P,ugm-3 (Ref.eq)
03-01-2024,16:00,3.875,P,ugm-3 (FIDAS),1.90151,P,ugm-3,14.35111,P,ugm-3,17.26671,P,ugm-3,54.08347,P,ugm-3,1.698,P,ugm-3 (Ref.eq)
03-01-2024,17:00,4.075,P,ugm-3 (FIDAS),3.25512,P,ugm-3,25.29963,P,ugm-3,30.29074,P,ugm-3,39.51486,P,ugm-3,2.594,P,ugm-3 (Ref.eq)
03-01-2024,18:00,5.225,P,ugm-3 (FIDAS),6.73584,P,ugm-3,44.97466,P,ugm-3,55.30280,P,ugm-3,22.50152,P,ugm-3,3.774,P,ugm-3 (Ref.eq)
03-01-2024,19:00,7.000,P,ugm-3 (FIDAS),3.15843,P,ugm-3,35.11724,P,ugm-3,39.96010,P,ugm-3,28.68819,P,ugm-3,5.236,P,ugm-3 (Ref.eq)
03-01-2024,20:00,5.625,P,ugm-3 (FIDAS),1.74036,P,ugm-3,24.51422,P,ugm-3,27.18274,P,ugm-3,38.66669,P,ugm-3,4.080,P,ugm-3 (Ref.eq)
03-01-2024,21:00,7.350,P,ugm-3 (FIDAS),1.45030,P,ugm-3,22.29496,P,ugm-3,24.51873,P,ugm-3,39.26540,P,ugm-3,4.434,P,ugm-3 (Ref.eq)
03-01-2024,22:00,9.050,P,ugm-3 (FIDAS),0.87018,P,ugm-3,19.04046,P,ugm-3,20.37472,P,ugm-3,38.96604,P,ugm-3,6.014,P,ugm-3 (Ref.eq)
03-01-2024,23:00,7.800,P,ugm-3 (FIDAS),1.25693,P,ugm-3,29.99149,P,ugm-3,31.91875,P,ugm-3,26.49292,P,ugm-3,5.519,P,ugm-3 (Ref.eq)
03-01-2024,24:00,4.975,P,ugm-3 (FIDAS),0.96687,P,ugm-3,31.07757,P,ugm-3,32.56008,P,ugm-3,25.69464,P,ugm-3,3.349,P,ugm-3 (Ref.eq)
04-01-2024,01:00,4.275,P,ugm-3 (FIDAS),0.68788,P,ugm-3,21.77979,P,ugm-3,22.83452,P,ugm-3,41.17794,P,ugm-3,2.476,P,ugm-3 (Ref.eq)
04-01-2024,02:00,3.550,P,ugm-3 (FIDAS),0.38693,P,ugm-3,16.51616,P,ugm-3,17.10944,P,ugm-3,40.97837,P,ugm-3,2.146,P,ugm-3 (Ref.eq)
04-01-2024,03:00,4.100,P,ugm-3 (FIDAS),0.22571,P,ugm-3,9.82087,P,ugm-3,10.16696,P,ugm-3,46.89895,P,ugm-3,2.264,P,ugm-3 (Ref.eq)
04-01-2024,04:00,4.050,P,ugm-3 (FIDAS),0.48366,P,ugm-3,12.78143,P,ugm-3,13.52304,P,ugm-3,45.90110,P,ugm-3,1.863,P,ugm-3 (Ref.eq)
04-01-2024,05:00,4.775,P,ugm-3 (FIDAS),0.54815,P,ugm-3,27.14332,P,ugm-3,27.98380,P,ugm-3,33.62755,P,ugm-3,2.453,P,ugm-3 (Ref.eq)
04-01-2024,06:00,6.625,P,ugm-3 (FIDAS),1.16079,P,ugm-3,24.18043,P,ugm-3,25.96028,P,ugm-3,41.26110,P,ugm-3,3.750,P,ugm-3 (Ref.eq)
04-01-2024,07:00,8.375,P,ugm-3 (FIDAS),0.87059,P,ugm-3,31.48562,P,ugm-3,32.82051,P,ugm-3,32.97894,P,ugm-3,3.962,P,ugm-3 (Ref.eq)
04-01-2024,08:00,7.975,P,ugm-3 (FIDAS),1.32201,P,ugm-3,28.57252,P,ugm-3,30.59957,P,ugm-3,36.17206,P,ugm-3,3.986,P,ugm-3 (Ref.eq)
04-01-2024,09:00,10.150,P,ugm-3 (FIDAS),3.54686,P,ugm-3,44.60667,P,ugm-3,50.04511,P,ugm-3,20.80517,P,ugm-3,5.377,P,ugm-3 (Ref.eq)
04-01-2024,10:00,15.150,P,ugm-3 (FIDAS),8.28675,P,ugm-3,41.83016,P,ugm-3,54.53634,P,ugm-3,24.99614,P,ugm-3,8.231,P,ugm-3 (Ref.eq)
04-01-2024,11:00,14.750,P,ugm-3 (FIDAS),8.70593,P,ugm-3,40.89131,P,ugm-3,54.24021,P,ugm-3,30.18496,P,ugm-3,6.934,P,ugm-3 (Ref.eq)
04-01-2024,12:00,15.200,P,ugm-3 (FIDAS),6.51332,P,ugm-3,29.10153,P,ugm-3,39.08849,P,ugm-3,41.76002,P,ugm-3,7.712,P,ugm-3 (Ref.eq)
04-01-2024,13:00,16.275,P,ugm-3 (FIDAS),5.54600,P,ugm-3,26.98189,P,ugm-3,35.48563,P,ugm-3,42.05938,P,ugm-3,7.783,P,ugm-3 (Ref.eq)
04-01-2024,14:00,17.175,P,ugm-3 (FIDAS),6.54557,P,ugm-3,33.29655,P,ugm-3,43.33294,P,ugm-3,37.21981,P,ugm-3,7.925,P,ugm-3 (Ref.eq)
04-01-2024,15:00,18.950,P,ugm-3 (FIDAS),7.48065,P,ugm-3,39.36461,P,ugm-3,50.83477,P,ugm-3,27.98969,P,ugm-3,10.118,P,ugm-3 (Ref.eq)
04-01-2024,16:00,17.975,P,ugm-3 (FIDAS),15.60618,P,ugm-3,51.58271,P,ugm-3,75.51185,P,ugm-3,12.37334,P,ugm-3,9.906,P,ugm-3 (Ref.eq)
04-01-2024,17:00,19.625,P,ugm-3 (FIDAS),29.50342,P,ugm-3,54.65485,P,ugm-3,99.89280,P,ugm-3,5.08904,P,ugm-3,12.453,P,ugm-3 (Ref.eq)
04-01-2024,18:00,27.450,P,ugm-3 (FIDAS),23.50600,P,ugm-3,56.54635,P,ugm-3,92.58839,P,ugm-3,5.53807,P,ugm-3,17.406,P,ugm-3 (Ref.eq)
04-01-2024,19:00,22.750,P,ugm-3 (FIDAS),35.01717,P,ugm-3,61.20421,P,ugm-3,114.89646,P,ugm-3,4.54022,P,ugm-3,14.340,P,ugm-3 (Ref.eq)
04-01-2024,20:00,24.850,P,ugm-3 (FIDAS),34.24331,P,ugm-3,56.41893,P,ugm-3,108.92461,P,ugm-3,4.34065,P,ugm-3,16.557,P,ugm-3 (Ref.eq)
04-01-2024,21:00,21.175,P,ugm-3 (FIDAS),5.64273,P,ugm-3,37.39536,P,ugm-3,46.04742,P,ugm-3,10.47743,P,ugm-3,15.047,P,ugm-3 (Ref.eq)
04-01-2024,22:00,21.000,P,ugm-3 (FIDAS),1.90241,P,ugm-3,25.11618,P,ugm-3,28.03316,P,ugm-3,18.46023,P,ugm-3,14.245,P,ugm-3 (Ref.eq)
04-01-2024,23:00,15.850,P,ugm-3 (FIDAS),1.87016,P,ugm-3,25.41239,P,ugm-3,28.27993,P,ugm-3,19.20861,P,ugm-3,11.014,P,ugm-3 (Ref.eq)
04-01-2024,24:00,13.050,P,ugm-3 (FIDAS),1.28977,P,ugm-3,18.45500,P,ugm-3,20.43262,P,ugm-3,26.59270,P,ugm-3,9.057,P,ugm-3 (Ref.eq)
05-01-2024,01:00,11.625,P,ugm-3 (FIDAS),0.68820,P,ugm-3,11.05807,P,ugm-3,12.11330,P,ugm-3,38.58353,P,ugm-3,7.146,P,ugm-3 (Ref.eq)
05-01-2024,02:00,9.250,P,ugm-3 (FIDAS),0.51615,P,ugm-3,9.34688,P,ugm-3,10.13830,P,ugm-3,42.37536,P,ugm-3,5.590,P,ugm-3 (Ref.eq)
05-01-2024,03:00,10.150,P,ugm-3 (FIDAS),0.48389,P,ugm-3,7.45427,P,ugm-3,8.19622,P,ugm-3,46.05078,P,ugm-3,6.132,P,ugm-3 (Ref.eq)
05-01-2024,04:00,14.175,P,ugm-3 (FIDAS),0.45163,P,ugm-3,10.95997,P,ugm-3,11.65246,P,ugm-3,41.01164,P,ugm-3,10.637,P,ugm-3 (Ref.eq)
05-01-2024,05:00,16.650,P,ugm-3 (FIDAS),0.67745,P,ugm-3,18.56307,P,ugm-3,19.60181,P,ugm-3,30.23486,P,ugm-3,13.750,P,ugm-3 (Ref.eq)
05-01-2024,06:00,17.625,P,ugm-3 (FIDAS),1.74201,P,ugm-3,25.67012,P,ugm-3,28.34116,P,ugm-3,23.34969,P,ugm-3,14.340,P,ugm-3 (Ref.eq)
05-01-2024,07:00,16.825,P,ugm-3 (FIDAS),3.16143,P,ugm-3,29.07307,P,ugm-3,33.92052,P,ugm-3,20.65550,P,ugm-3,13.278,P,ugm-3 (Ref.eq)
05-01-2024,08:00,17.050,P,ugm-3 (FIDAS),3.22594,P,ugm-3,27.44352,P,ugm-3,32.38990,P,ugm-3,24.49722,P,ugm-3,13.467,P,ugm-3 (Ref.eq)
05-01-2024,09:00,14.825,P,ugm-3 (FIDAS),3.22594,P,ugm-3,26.20915,P,ugm-3,31.15553,P,ugm-3,27.69034,P,ugm-3,12.217,P,ugm-3 (Ref.eq)
05-01-2024,10:00,17.850,P,ugm-3 (FIDAS),5.12925,P,ugm-3,29.26514,P,ugm-3,37.12988,P,ugm-3,22.25206,P,ugm-3,14.104,P,ugm-3 (Ref.eq)
05-01-2024,11:00,16.525,P,ugm-3 (FIDAS),6.03251,P,ugm-3,28.07766,P,ugm-3,37.32738,P,ugm-3,23.54926,P,ugm-3,12.901,P,ugm-3 (Ref.eq)
05-01-2024,12:00,17.000,P,ugm-3 (FIDAS),7.80678,P,ugm-3,26.59152,P,ugm-3,38.56175,P,ugm-3,25.64475,P,ugm-3,12.642,P,ugm-3 (Ref.eq)
05-01-2024,13:00,12.900,P,ugm-3 (FIDAS),8.06486,P,ugm-3,22.93707,P,ugm-3,35.30301,P,ugm-3,32.33034,P,ugm-3,9.505,P,ugm-3 (Ref.eq)
05-01-2024,14:00,3.650,P,ugm-3 (FIDAS),3.03239,P,ugm-3,13.86597,P,ugm-3,18.51557,P,ugm-3,56.12906,P,ugm-3,1.392,P,ugm-3 (Ref.eq)
05-01-2024,15:00,13.775,P,ugm-3 (FIDAS),4.09695,P,ugm-3,22.50363,P,ugm-3,28.78554,P,ugm-3,41.51056,P,ugm-3,9.458,P,ugm-3 (Ref.eq)
05-01-2024,16:00,13.675,P,ugm-3 (FIDAS),5.19377,P,ugm-3,33.06683,P,ugm-3,41.03050,P,ugm-3,28.38883,P,ugm-3,8.892,P,ugm-3 (Ref.eq)
05-01-2024,17:00,13.575,P,ugm-3 (FIDAS),7.54871,P,ugm-3,41.35531,P,ugm-3,52.92983,P,ugm-3,21.55356,P,ugm-3,9.151,P,ugm-3 (Ref.eq)
05-01-2024,18:00,10.925,P,ugm-3 (FIDAS),3.80661,P,ugm-3,31.83628,P,ugm-3,37.67301,P,ugm-3,28.18926,P,ugm-3,7.099,P,ugm-3 (Ref.eq)
05-01-2024,19:00,11.825,P,ugm-3 (FIDAS),2.87109,P,ugm-3,30.16011,P,ugm-3,34.56239,P,ugm-3,27.29120,P,ugm-3,9.080,P,ugm-3 (Ref.eq)
05-01-2024,20:00,15.650,P,ugm-3 (FIDAS),3.35498,P,ugm-3,31.04753,P,ugm-3,36.19176,P,ugm-3,21.30410,P,ugm-3,12.665,P,ugm-3 (Ref.eq)
05-01-2024,21:00,14.775,P,ugm-3 (FIDAS),3.58080,P,ugm-3,29.56566,P,ugm-3,35.05614,P,ugm-3,17.11313,P,ugm-3,11.981,P,ugm-3 (Ref.eq)
05-01-2024,22:00,12.850,P,ugm-3 (FIDAS),2.58076,P,ugm-3,24.87781,P,ugm-3,28.83491,P,ugm-3,22.70109,P,ugm-3,9.528,P,ugm-3 (Ref.eq)
05-01-2024,23:00,10.400,P,ugm-3 (FIDAS),1.41942,P,ugm-3,17.47478,P,ugm-3,19.65119,P,ugm-3,30.58410,P,ugm-3,7.854,P,ugm-3 (Ref.eq)
05-01-2024,24:00,11.325,P,ugm-3 (FIDAS),1.06456,P,ugm-3,14.61202,P,ugm-3,16.24432,P,ugm-3,30.38453,P,ugm-3,8.915,P,ugm-3 (Ref.eq)
06-01-2024,01:00,12.300,P,ugm-3 (FIDAS),0.98976,P,ugm-3,13.69622,P,ugm-3,15.21383,P,ugm-3,,,,9.481,P,ugm-3 (Ref.eq)
06-01-2024,02:00,10.875,P,ugm-3 (FIDAS),0.94672,P,ugm-3,12.11568,P,ugm-3,13.56731,P,ugm-3,30.53421,P,ugm-3,8.632,P,ugm-3 (Ref.eq)
06-01-2024,03:00,11.375,P,ugm-3 (FIDAS),0.71004,P,ugm-3,10.46984,P,ugm-3,11.55856,P,ugm-3,31.18281,P,ugm-3,9.316,P,ugm-3 (Ref.eq)
06-01-2024,04:00,10.925,P,ugm-3 (FIDAS),0.51640,P,ugm-3,10.71737,P,ugm-3,11.50916,P,ugm-3,31.93120,P,ugm-3,8.939,P,ugm-3 (Ref.eq)
06-01-2024,05:00,9.150,P,ugm-3 (FIDAS),0.64549,P,ugm-3,10.17365,P,ugm-3,11.16339,P,ugm-3,30.78367,P,ugm-3,7.689,P,ugm-3 (Ref.eq)
06-01-2024,06:00,8.350,P,ugm-3 (FIDAS),0.87142,P,ugm-3,9.62966,P,ugm-3,10.96581,P,ugm-3,33.32819,P,ugm-3,6.462,P,ugm-3 (Ref.eq)
06-01-2024,07:00,8.750,P,ugm-3 (FIDAS),1.38781,P,ugm-3,14.27137,P,ugm-3,16.39932,P,ugm-3,25.64475,P,ugm-3,7.123,P,ugm-3 (Ref.eq)
06-01-2024,08:00,9.025,P,ugm-3 (FIDAS),7.19726,P,ugm-3,20.92327,P,ugm-3,31.95891,P,ugm-3,12.62280,P,ugm-3,7.594,P,ugm-3 (Ref.eq)
06-01-2024,09:00,11.000,P,ugm-3 (FIDAS),19.20345,P,ugm-3,30.52131,P,ugm-3,59.96618,P,ugm-3,2.39484,P,ugm-3,8.443,P,ugm-3 (Ref.eq)
06-01-2024,10:00,14.700,P,ugm-3 (FIDAS),52.44638,P,ugm-3,36.15680,P,ugm-3,116.57347,P,ugm-3,3.89162,P,ugm-3,10.708,P,ugm-3 (Ref.eq)
06-01-2024,11:00,16.975,P,ugm-3 (FIDAS),29.53135,P,ugm-3,30.73896,P,ugm-3,76.01973,P,ugm-3,7.68345,P,ugm-3,11.274,P,ugm-3 (Ref.eq)
06-01-2024,12:00,11.400,P,ugm-3 (FIDAS),24.49650,P,ugm-3,29.02441,P,ugm-3,66.58519,P,ugm-3,14.31915,P,ugm-3,7.712,P,ugm-3 (Ref.eq)
06-01-2024,13:00,9.850,P,ugm-3 (FIDAS),12.13529,P,ugm-3,21.00804,P,ugm-3,39.61522,P,ugm-3,23.84862,P,ugm-3,5.991,P,ugm-3 (Ref.eq)
06-01-2024,14:00,6.800,P,ugm-3 (FIDAS),3.64704,P,ugm-3,11.59760,P,ugm-3,17.18965,P,ugm-3,48.49551,P,ugm-3,3.420,P,ugm-3 (Ref.eq)
06-01-2024,15:00,8.850,P,ugm-3 (FIDAS),2.54970,P,ugm-3,13.08258,P,ugm-3,16.99207,P,ugm-3,42.80777,P,ugm-3,4.953,P,ugm-3 (Ref.eq)
06-01-2024,16:00,11.075,P,ugm-3 (FIDAS),5.03485,P,ugm-3,23.99194,P,ugm-3,31.71194,P,ugm-3,24.54711,P,ugm-3,8.349,P,ugm-3 (Ref.eq)
06-01-2024,17:00,12.625,P,ugm-3 (FIDAS),7.35863,P,ugm-3,34.35840,P,ugm-3,45.64148,P,ugm-3,14.21936,P,ugm-3,9.080,P,ugm-3 (Ref.eq)
06-01-2024,18:00,11.275,P,ugm-3 (FIDAS),5.32533,P,ugm-3,32.19077,P,ugm-3,40.35615,P,ugm-3,18.51012,P,ugm-3,7.736,P,ugm-3 (Ref.eq)
06-01-2024,19:00,12.675,P,ugm-3 (FIDAS),3.64704,P,ugm-3,27.94752,P,ugm-3,33.53957,P,ugm-3,18.60990,P,ugm-3,9.670,P,ugm-3 (Ref.eq)
06-01-2024,20:00,16.425,P,ugm-3 (FIDAS),5.09940,P,ugm-3,35.15514,P,ugm-3,42.97412,P,ugm-3,11.32560,P,ugm-3,12.241,P,ugm-3 (Ref.eq)
06-01-2024,21:00,15.550,P,ugm-3 (FIDAS),2.84017,P,ugm-3,32.14843,P,ugm-3,36.50330,P,ugm-3,14.51872,P,ugm-3,12.359,P,ugm-3 (Ref.eq)
06-01-2024,22:00,14.375,P,ugm-3 (FIDAS),1.77511,P,ugm-3,29.28651,P,ugm-3,32.00831,P,ugm-3,18.16087,P,ugm-3,11.297,P,ugm-3 (Ref.eq)
06-01-2024,23:00,11.250,P,ugm-3 (FIDAS),1.74283,P,ugm-3,25.77952,P,ugm-3,28.45183,P,ugm-3,22.95055,P,ugm-3,8.726,P,ugm-3 (Ref.eq)
06-01-2024,24:00,10.350,P,ugm-3 (FIDAS),0.64549,P,ugm-3,12.84101,P,ugm-3,13.83075,P,ugm-3,35.87271,P,ugm-3,7.830,P,ugm-3 (Ref.eq)
07-01-2024,01:00,12.550,P,ugm-3 (FIDAS),0.86107,P,ugm-3,14.49291,P,ugm-3,15.81320,P,ugm-3,29.27027,P,ugm-3,9.481,P,ugm-3 (Ref.eq)
07-01-2024,02:00,10.650,P,ugm-3 (FIDAS),0.47359,P,ugm-3,11.72674,P,ugm-3,12.45289,P,ugm-3,36.85393,P,ugm-3,7.948,P,ugm-3 (Ref.eq)
07-01-2024,03:00,6.875,P,ugm-3 (FIDAS),0.22603,P,ugm-3,8.15302,P,ugm-3,8.49959,P,ugm-3,47.59745,P,ugm-3,5.165,P,ugm-3 (Ref.eq)
07-01-2024,04:00,8.750,P,ugm-3 (FIDAS),0.19374,P,ugm-3,6.91771,P,ugm-3,7.21477,P,ugm-3,46.59960,P,ugm-3,6.250,P,ugm-3 (Ref.eq)
07-01-2024,05:00,9.100,P,ugm-3 (FIDAS),0.19374,P,ugm-3,5.68230,P,ugm-3,5.97936,P,ugm-3,54.53250,P,ugm-3,5.991,P,ugm-3 (Ref.eq)
07-01-2024,06:00,10.350,P,ugm-3 (FIDAS),0.29061,P,ugm-3,5.73143,P,ugm-3,6.17703,P,ugm-3,55.38068,P,ugm-3,6.156,P,ugm-3 (Ref.eq)
07-01-2024,07:00,9.175,P,ugm-3 (FIDAS),0.48435,P,ugm-3,5.33554,P,ugm-3,6.07820,P,ugm-3,59.77122,P,ugm-3,4.599,P,ugm-3 (Ref.eq)
07-01-2024,08:00,7.200,P,ugm-3 (FIDAS),0.45206,P,ugm-3,6.81812,P,ugm-3,7.51127,P,ugm-3,59.27229,P,ugm-3,3.538,P,ugm-3 (Ref.eq)
07-01-2024,09:00,6.350,P,ugm-3 (FIDAS),0.83954,P,ugm-3,9.58430,P,ugm-3,10.87157,P,ugm-3,57.07702,P,ugm-3,3.278,P,ugm-3 (Ref.eq)
07-01-2024,10:00,6.825,P,ugm-3 (FIDAS),0.93641,P,ugm-3,8.49686,P,ugm-3,9.93266,P,ugm-3,57.02713,P,ugm-3,3.467,P,ugm-3 (Ref.eq)
07-01-2024,11:00,6.850,P,ugm-3 (FIDAS),1.87282,P,ugm-3,8.49412,P,ugm-3,11.36573,P,ugm-3,61.51745,P,ugm-3,3.066,P,ugm-3 (Ref.eq)
07-01-2024,12:00,6.925,P,ugm-3 (FIDAS),1.80824,P,ugm-3,8.49431,P,ugm-3,11.26690,P,ugm-3,62.36563,P,ugm-3,3.184,P,ugm-3 (Ref.eq)
07-01-2024,13:00,7.575,P,ugm-3 (FIDAS),2.16343,P,ugm-3,9.92634,P,ugm-3,13.24355,P,ugm-3,62.11616,P,ugm-3,3.184,P,ugm-3 (Ref.eq)
07-01-2024,14:00,10.675,P,ugm-3 (FIDAS),1.67908,P,ugm-3,10.17484,P,ugm-3,12.74939,P,ugm-3,62.66498,P,ugm-3,3.491,P,ugm-3 (Ref.eq)
07-01-2024,15:00,11.350,P,ugm-3 (FIDAS),1.45305,P,ugm-3,9.82958,P,ugm-3,12.05756,P,ugm-3,63.86240,P,ugm-3,4.104,P,ugm-3 (Ref.eq)
07-01-2024,16:00,12.225,P,ugm-3 (FIDAS),1.64679,P,ugm-3,13.93057,P,ugm-3,16.45561,P,ugm-3,56.57810,P,ugm-3,4.953,P,ugm-3 (Ref.eq)
07-01-2024,17:00,11.450,P,ugm-3 (FIDAS),1.54992,P,ugm-3,16.94524,P,ugm-3,19.32175,P,ugm-3,54.58240,P,ugm-3,5.448,P,ugm-3 (Ref.eq)
07-01-2024,18:00,13.650,P,ugm-3 (FIDAS),1.19473,P,ugm-3,21.24549,P,ugm-3,23.07738,P,ugm-3,51.38928,P,ugm-3,7.170,P,ugm-3 (Ref.eq)
07-01-2024,19:00,16.475,P,ugm-3 (FIDAS),1.71137,P,ugm-3,22.18289,P,ugm-3,24.80695,P,ugm-3,50.29164,P,ugm-3,9.552,P,ugm-3 (Ref.eq)
07-01-2024,20:00,12.350,P,ugm-3 (FIDAS),0.90412,P,ugm-3,18.42961,P,ugm-3,19.81591,P,ugm-3,58.27444,P,ugm-3,6.132,P,ugm-3 (Ref.eq)
07-01-2024,21:00,11.100,P,ugm-3 (FIDAS),0.58122,P,ugm-3,18.33172,P,ugm-3,19.22291,P,ugm-3,60.27014,P,ugm-3,5.873,P,ugm-3 (Ref.eq)
07-01-2024,22:00,11.150,P,ugm-3 (FIDAS),0.90412,P,ugm-3,17.78720,P,ugm-3,19.17350,P,ugm-3,57.97509,P,ugm-3,6.297,P,ugm-3 (Ref.eq)
07-01-2024,23:00,12.675,P,ugm-3 (FIDAS),0.93641,P,ugm-3,37.20769,P,ugm-3,38.64349,P,ugm-3,29.73593,P,ugm-3,7.359,P,ugm-3 (Ref.eq)
07-01-2024,24:00,12.025,P,ugm-3 (FIDAS),2.90610,P,ugm-3,46.68985,P,ugm-3,51.14580,P,ugm-3,13.52087,P,ugm-3,7.736,P,ugm-3 (Ref.eq)
08-01-2024,01:00,11.950,P,ugm-3 (FIDAS),1.55065,P,ugm-3,34.93077,P,ugm-3,37.30840,P,ugm-3,19.09220,P,ugm-3,7.618,P,ugm-3 (Ref.eq)
08-01-2024,02:00,10.850,P,ugm-3 (FIDAS),0.55996,P,ugm-3,17.59786,P,ugm-3,18.45645,P,ugm-3,33.79385,P,ugm-3,7.429,P,ugm-3 (Ref.eq)
08-01-2024,03:00,10.750,P,ugm-3 (FIDAS),1.06607,P,ugm-3,19.82101,P,ugm-3,21.45563,P,ugm-3,21.60345,P,ugm-3,7.618,P,ugm-3 (Ref.eq)
08-01-2024,04:00,12.700,P,ugm-3 (FIDAS),1.16299,P,ugm-3,17.59605,P,ugm-3,19.37928,P,ugm-3,27.49077,P,ugm-3,8.939,P,ugm-3 (Ref.eq)
08-01-2024,05:00,11.450,P,ugm-3 (FIDAS),1.19529,P,ugm-3,15.56904,P,ugm-3,17.40180,P,ugm-3,36.32174,P,ugm-3,7.359,P,ugm-3 (Ref.eq)
08-01-2024,06:00,10.850,P,ugm-3 (FIDAS),3.74741,P,ugm-3,24.90495,P,ugm-3,30.65089,P,ugm-3,28.58840,P,ugm-3,7.099,P,ugm-3 (Ref.eq)
08-01-2024,07:00,11.875,P,ugm-3 (FIDAS),5.68572,P,ugm-3,42.35036,P,ugm-3,51.06834,P,ugm-3,15.81592,P,ugm-3,7.335,P,ugm-3 (Ref.eq)
08-01-2024,08:00,11.725,P,ugm-3 (FIDAS),3.52127,P,ugm-3,42.45574,P,ugm-3,47.85494,P,ugm-3,22.90066,P,ugm-3,7.995,P,ugm-3 (Ref.eq)
08-01-2024,09:00,9.075,P,ugm-3 (FIDAS),9.72387,P,ugm-3,45.30445,P,ugm-3,60.21418,P,ugm-3,20.90496,P,ugm-3,6.085,P,ugm-3 (Ref.eq)
08-01-2024,10:00,9.300,P,ugm-3 (FIDAS),10.75764,P,ugm-3,47.97093,P,ugm-3,64.46575,P,ugm-3,23.44948,P,ugm-3,6.038,P,ugm-3 (Ref.eq)
08-01-2024,11:00,9.175,P,ugm-3 (FIDAS),4.07046,P,ugm-3,27.42526,P,ugm-3,33.66655,P,ugm-3,46.44992,P,ugm-3,5.071,P,ugm-3 (Ref.eq)
08-01-2024,12:00,9.250,P,ugm-3 (FIDAS),2.19676,P,ugm-3,17.24689,P,ugm-3,20.61520,P,ugm-3,58.02498,P,ugm-3,4.387,P,ugm-3 (Ref.eq)
08-01-2024,13:00,11.825,P,ugm-3 (FIDAS),2.58442,P,ugm-3,17.88840,P,ugm-3,21.85112,P,ugm-3,57.67573,P,ugm-3,4.623,P,ugm-3 (Ref.eq)
08-01-2024,14:00,18.225,P,ugm-3 (FIDAS),2.71364,P,ugm-3,19.22281,P,ugm-3,23.38367,P,ugm-3,56.52820,P,ugm-3,5.708,P,ugm-3 (Ref.eq)